SWR1ZB LGAV-LSZH

Flight info

Callsign SWR1ZB
Flight time 2h 34m
Altitude 38000
Route KOR UL53 ELVAS DCT DIMIS DCT RODON DCT VAKSU DCT SPL DCT MONFA DCT BAKOR DCT SOTOV P66 KPT L856 NEGRA
Aircraft A20N/M-SDE2E3FGHIJ1RWXY/LB1

Departure

Time 2026-04-25 22:01
Airport Athens Eleftherios Venizelos International Airport (LGAV)

Arrival

Time 2026-04-26 00:35
Airport Zürich Airport (LSZH)
Time Latitude Longitude Altitude Speed Heading
2026-04-25 21:24 37.93745 23.94978 288 ft 0 kts 307°
2026-04-25 21:42 37.93745 23.94979 288 ft 0 kts 307°
2026-04-25 21:42 37.93737 23.94992 288 ft 2 kts 307°
2026-04-25 21:42 37.93728 23.95007 288 ft 2 kts 307°
2026-04-25 21:42 37.93719 23.95023 288 ft 2 kts 307°
2026-04-25 21:43 37.93711 23.95039 287 ft 2 kts 282°
2026-04-25 21:43 37.93710 23.95058 287 ft 2 kts 261°
2026-04-25 21:43 37.93715 23.95076 287 ft 2 kts 238°
2026-04-25 21:43 37.93725 23.95090 287 ft 2 kts 215°
2026-04-25 21:44 37.93735 23.95099 287 ft 0 kts 217°
2026-04-25 21:44 37.93737 23.95100 287 ft 0 kts 218°
2026-04-25 21:46 37.93731 23.95095 286 ft 1 kts 218°
2026-04-25 21:46 37.93718 23.95082 287 ft 3 kts 217°
2026-04-25 21:46 37.93698 23.95063 287 ft 4 kts 217°
2026-04-25 21:46 37.93673 23.95039 287 ft 4 kts 217°
2026-04-25 21:47 37.93644 23.95010 287 ft 5 kts 218°
2026-04-25 21:47 37.93608 23.94976 287 ft 6 kts 215°
2026-04-25 21:47 37.93566 23.94937 288 ft 8 kts 217°
2026-04-25 21:47 37.93518 23.94891 288 ft 9 kts 216°
2026-04-25 21:48 37.93457 23.94869 288 ft 10 kts 153°
2026-04-25 21:48 37.93392 23.94890 287 ft 11 kts 209°
2026-04-25 21:48 37.93324 23.94826 287 ft 12 kts 218°
2026-04-25 21:48 37.93250 23.94756 286 ft 14 kts 217°
2026-04-25 21:49 37.93166 23.94676 284 ft 16 kts 217°
2026-04-25 21:49 37.93074 23.94589 283 ft 17 kts 217°
2026-04-25 21:49 37.92976 23.94495 281 ft 18 kts 217°
2026-04-25 21:49 37.92885 23.94383 278 ft 17 kts 278°
2026-04-25 21:50 37.92946 23.94248 277 ft 18 kts 306°
2026-04-25 21:50 37.92949 23.94243 277 ft 18 kts 306°
2026-04-25 21:50 37.92968 23.94210 276 ft 0 kts 308°
2026-04-25 21:51 37.92972 23.94204 276 ft 0 kts 307°
2026-04-25 21:51 37.92984 23.94184 276 ft 4 kts 307°
2026-04-25 21:51 37.93013 23.94137 274 ft 8 kts 306°
2026-04-25 21:51 37.93059 23.94059 272 ft 12 kts 307°
2026-04-25 21:52 37.93109 23.93975 271 ft 12 kts 307°
2026-04-25 21:52 37.93171 23.93872 268 ft 16 kts 307°
2026-04-25 21:52 37.93245 23.93750 265 ft 18 kts 307°
2026-04-25 21:52 37.93324 23.93614 262 ft 19 kts 307°
2026-04-25 21:53 37.93403 23.93482 261 ft 14 kts 307°
2026-04-25 21:53 37.93416 23.93372 261 ft 14 kts 229°
2026-04-25 21:53 37.93330 23.93287 259 ft 16 kts 217°
2026-04-25 21:53 37.93235 23.93196 258 ft 17 kts 217°
2026-04-25 21:54 37.93136 23.93102 256 ft 18 kts 216°
2026-04-25 21:54 37.93031 23.93003 256 ft 18 kts 217°
2026-04-25 21:54 37.92927 23.92903 255 ft 18 kts 218°
2026-04-25 21:54 37.92821 23.92803 255 ft 19 kts 217°
2026-04-25 21:55 37.92713 23.92701 256 ft 19 kts 217°
2026-04-25 21:55 37.92600 23.92594 257 ft 20 kts 217°
2026-04-25 21:55 37.92482 23.92481 258 ft 21 kts 217°
2026-04-25 21:55 37.92361 23.92366 260 ft 22 kts 217°
2026-04-25 21:56 37.92239 23.92251 261 ft 21 kts 217°
2026-04-25 21:56 37.92164 23.92178 263 ft 20 kts 217°
2026-04-25 21:56 37.92125 23.92047 264 ft 9 kts 306°
2026-04-25 21:56 37.92134 23.92032 264 ft 0 kts 307°
2026-04-25 21:59 37.92135 23.92031 264 ft 0 kts 307°
2026-04-25 21:59 37.92137 23.92027 264 ft 1 kts 307°
2026-04-25 22:00 37.92177 23.91961 265 ft 6 kts 308°
2026-04-25 22:00 37.92222 23.91957 265 ft 8 kts 32°
2026-04-25 22:00 37.92401 23.92126 262 ft 70 kts 37°
2026-04-25 22:00 37.93000 23.92695 256 ft 141 kts 37°
2026-04-25 22:01 37.93886 23.93532 564 ft 169 kts 36°
2026-04-25 22:01 37.94807 23.94402 1422 ft 164 kts 35°
2026-04-25 22:01 37.95667 23.95203 2392 ft 154 kts 33°
2026-04-25 22:01 37.96238 23.95719 2896 ft 153 kts 34°
2026-04-25 22:02 37.97391 23.96761 3752 ft 159 kts 35°
2026-04-25 22:02 37.98333 23.97620 4239 ft 175 kts 36°
2026-04-25 22:02 37.99358 23.98561 4730 ft 192 kts 36°
2026-04-25 22:02 38.00502 23.99616 5151 ft 216 kts 36°
2026-04-25 22:03 38.01779 24.00796 5708 ft 235 kts 37°
2026-04-25 22:03 38.03126 24.02042 6385 ft 249 kts 37°
2026-04-25 22:03 38.04525 24.03334 7257 ft 254 kts 38°
2026-04-25 22:03 38.05957 24.04660 8128 ft 258 kts 38°
2026-04-25 22:04 38.07489 24.05890 8894 ft 269 kts 24°
2026-04-25 22:04 38.09396 24.06298 9429 ft 290 kts 357°
2026-04-25 22:04 38.11340 24.05550 10172 ft 301 kts 330°
2026-04-25 22:04 38.12899 24.03712 10822 ft 315 kts 303°
2026-04-25 22:05 38.13641 24.01067 11273 ft 333 kts 274°
2026-04-25 22:05 38.13284 23.98087 11793 ft 346 kts 245°
2026-04-25 22:05 38.11947 23.95573 12558 ft 349 kts 227°
2026-04-25 22:05 38.10305 23.93318 13316 ft 354 kts 225°
2026-04-25 22:06 38.08782 23.90825 14002 ft 361 kts 244°
2026-04-25 22:06 38.08018 23.87787 14725 ft 365 kts 259°
2026-04-25 22:06 38.07583 23.84616 15444 ft 369 kts 262°
2026-04-25 22:06 38.07172 23.81403 16107 ft 375 kts 261°
2026-04-25 22:07 38.06715 23.78133 16799 ft 379 kts 261°
2026-04-25 22:07 38.06383 23.75933 17255 ft 382 kts 260°
2026-04-25 22:07 38.05693 23.71510 18133 ft 387 kts 260°
2026-04-25 22:07 38.05192 23.68358 18735 ft 391 kts 260°
2026-04-25 22:08 38.04652 23.64963 19385 ft 395 kts 260°
2026-04-25 22:08 38.04110 23.61562 20041 ft 398 kts 260°
2026-04-25 22:08 38.03563 23.58139 20674 ft 402 kts 260°
2026-04-25 22:08 38.03006 23.54659 21317 ft 405 kts 260°
2026-04-25 22:09 38.02440 23.51130 21945 ft 408 kts 260°
2026-04-25 22:09 38.01870 23.47581 22566 ft 411 kts 260°
2026-04-25 22:09 38.01302 23.44060 23188 ft 414 kts 260°
2026-04-25 22:09 38.00721 23.40468 23790 ft 417 kts 261°
2026-04-25 22:10 38.00137 23.36850 24334 ft 421 kts 261°
2026-04-25 22:10 37.99543 23.33179 24875 ft 425 kts 260°
2026-04-25 22:10 37.98946 23.29505 25403 ft 429 kts 260°
2026-04-25 22:10 37.98345 23.25807 25895 ft 433 kts 260°
2026-04-25 22:11 37.97735 23.22066 26400 ft 437 kts 260°
2026-04-25 22:11 37.97109 23.18239 26890 ft 441 kts 260°
2026-04-25 22:11 37.96486 23.14435 27344 ft 445 kts 260°
2026-04-25 22:11 37.95855 23.10600 27783 ft 448 kts 260°
2026-04-25 22:12 37.95217 23.06730 28201 ft 452 kts 260°
2026-04-25 22:12 37.94566 23.02776 28616 ft 455 kts 261°
2026-04-25 22:12 37.93981 22.98853 28983 ft 457 kts 266°
2026-04-25 22:12 37.93903 22.97487 29092 ft 456 kts 272°
2026-04-25 22:13 37.94813 22.90972 29703 ft 449 kts 296°
2026-04-25 22:13 37.96269 22.87534 30067 ft 443 kts 308°
2026-04-25 22:13 37.98032 22.84352 30410 ft 444 kts 310°
2026-04-25 22:13 37.99852 22.81161 30835 ft 444 kts 310°
2026-04-25 22:14 38.01625 22.78019 31305 ft 442 kts 310°
2026-04-25 22:14 38.03392 22.74840 31759 ft 441 kts 310°
2026-04-25 22:14 38.05155 22.71638 32172 ft 440 kts 310°
2026-04-25 22:14 38.06898 22.68462 32571 ft 439 kts 310°
2026-04-25 22:15 38.08644 22.65282 32960 ft 438 kts 310°
2026-04-25 22:15 38.10400 22.62083 33352 ft 437 kts 310°
2026-04-25 22:15 38.12138 22.58908 33738 ft 437 kts 310°
2026-04-25 22:16 38.15111 22.53467 34355 ft 435 kts 310°
2026-04-25 22:16 38.16824 22.50328 34658 ft 435 kts 310°
2026-04-25 22:16 38.18547 22.47167 34923 ft 435 kts 310°
2026-04-25 22:16 38.20277 22.43995 35204 ft 434 kts 310°
2026-04-25 22:17 38.22010 22.40808 35496 ft 433 kts 310°
2026-04-25 22:17 38.23705 22.37688 35768 ft 432 kts 309°
2026-04-25 22:17 38.25423 22.34519 36030 ft 431 kts 309°
2026-04-25 22:17 38.27123 22.31381 36266 ft 431 kts 309°
2026-04-25 22:18 38.28839 22.28210 36492 ft 432 kts 309°
2026-04-25 22:18 38.30543 22.25061 36703 ft 433 kts 309°
2026-04-25 22:18 38.32263 22.21880 36942 ft 434 kts 309°
2026-04-25 22:18 38.33963 22.18739 37204 ft 434 kts 309°
2026-04-25 22:19 38.35002 22.16816 37343 ft 434 kts 309°
2026-04-25 22:19 38.36352 22.14318 37500 ft 435 kts 308°
2026-04-25 22:19 38.38094 22.11088 37707 ft 436 kts 308°
2026-04-25 22:19 38.39811 22.07897 37903 ft 437 kts 308°
2026-04-25 22:20 38.41511 22.04732 38044 ft 437 kts 308°
2026-04-25 22:20 38.44962 21.98294 38073 ft 437 kts 308°
2026-04-25 22:21 38.48425 21.91925 38066 ft 436 kts 311°
2026-04-25 22:21 38.52348 21.86127 38063 ft 432 kts 319°
2026-04-25 22:22 38.56849 21.81091 38060 ft 427 kts 327°
2026-04-25 22:22 38.61766 21.76893 38064 ft 424 kts 332°
2026-04-25 22:23 38.66776 21.72956 38061 ft 423 kts 332°
2026-04-25 22:23 38.71814 21.68993 38065 ft 423 kts 332°
2026-04-25 22:24 38.76776 21.65077 38063 ft 422 kts 332°
2026-04-25 22:24 38.81782 21.61117 38050 ft 423 kts 332°
2026-04-25 22:25 38.86804 21.57135 38049 ft 423 kts 332°
2026-04-25 22:25 38.91800 21.53167 38049 ft 423 kts 332°
2026-04-25 22:26 38.96826 21.49167 38034 ft 423 kts 332°
2026-04-25 22:26 39.00979 21.45855 38039 ft 423 kts 332°
2026-04-25 22:27 39.06798 21.41211 38075 ft 422 kts 332°
2026-04-25 22:27 39.11759 21.37243 38053 ft 422 kts 332°
2026-04-25 22:28 39.16797 21.33207 38056 ft 422 kts 332°
2026-04-25 22:28 39.21748 21.29235 38066 ft 421 kts 331°
2026-04-25 22:29 39.26746 21.25215 38072 ft 422 kts 332°
2026-04-25 22:29 39.31735 21.21198 38073 ft 421 kts 331°
2026-04-25 22:30 39.39159 21.15207 38074 ft 422 kts 331°
2026-04-25 22:30 39.43341 21.11826 38065 ft 422 kts 331°
2026-04-25 22:31 39.49151 21.07120 38060 ft 422 kts 331°
2026-04-25 22:31 39.54120 21.03087 38055 ft 422 kts 331°
2026-04-25 22:32 39.59100 20.99037 38050 ft 422 kts 331°
2026-04-25 22:32 39.64087 20.94976 38047 ft 421 kts 331°
2026-04-25 22:33 39.69046 20.90931 38032 ft 422 kts 331°
2026-04-25 22:33 39.74031 20.86857 38017 ft 422 kts 331°
2026-04-25 22:34 39.77341 20.84148 38023 ft 421 kts 331°
2026-04-25 22:34 39.83967 20.78715 38045 ft 421 kts 331°
2026-04-25 22:35 39.88923 20.74642 38070 ft 422 kts 331°
2026-04-25 22:35 39.93900 20.70545 38082 ft 422 kts 330°
2026-04-25 22:36 39.98844 20.66464 38083 ft 422 kts 330°
2026-04-25 22:36 40.03831 20.62343 38085 ft 422 kts 330°
2026-04-25 22:37 40.08660 20.58028 38072 ft 424 kts 325°
2026-04-25 22:37 40.13288 20.53220 38066 ft 424 kts 324°
2026-04-25 22:38 40.17906 20.48351 38066 ft 424 kts 324°
2026-04-25 22:38 40.22504 20.43496 38064 ft 424 kts 324°
2026-04-25 22:39 40.27087 20.38653 38069 ft 424 kts 324°
2026-04-25 22:39 40.31679 20.33793 38069 ft 424 kts 323°
2026-04-25 22:40 40.36278 20.28918 38067 ft 424 kts 323°
2026-04-25 22:40 40.40893 20.24017 38062 ft 424 kts 323°
2026-04-25 22:41 40.45479 20.19136 38054 ft 423 kts 323°
2026-04-25 22:41 40.49718 20.14618 38051 ft 423 kts 323°
2026-04-25 22:42 40.54312 20.09712 38043 ft 424 kts 323°
2026-04-25 22:42 40.58876 20.04830 38041 ft 424 kts 323°
2026-04-25 22:43 40.63452 19.99927 38036 ft 423 kts 323°
2026-04-25 22:43 40.68037 19.95003 38031 ft 423 kts 323°
2026-04-25 22:44 40.71320 19.91473 38029 ft 423 kts 322°
2026-04-25 22:44 40.75885 19.86558 38025 ft 423 kts 322°
2026-04-25 22:45 40.80463 19.81618 38025 ft 423 kts 322°
2026-04-25 22:45 40.84928 19.76791 38024 ft 423 kts 322°
2026-04-25 22:46 40.89204 19.72160 38024 ft 423 kts 322°
2026-04-25 22:46 40.93760 19.67217 38025 ft 423 kts 322°
2026-04-25 22:47 40.98250 19.62336 38025 ft 423 kts 322°
2026-04-25 22:47 41.02768 19.57418 38024 ft 423 kts 322°
2026-04-25 22:48 41.07333 19.52439 38024 ft 423 kts 322°
2026-04-25 22:48 41.11870 19.47479 38025 ft 423 kts 322°
2026-04-25 22:49 41.16419 19.42499 38025 ft 423 kts 322°
2026-04-25 22:49 41.20941 19.37536 38025 ft 422 kts 322°
2026-04-25 22:50 41.25464 19.32563 38025 ft 422 kts 321°
2026-04-25 22:50 41.29990 19.27578 38025 ft 422 kts 321°
2026-04-25 22:51 41.34491 19.22611 38025 ft 422 kts 321°
2026-04-25 22:51 41.39032 19.17588 38024 ft 422 kts 321°
2026-04-25 22:52 41.43550 19.12580 38024 ft 423 kts 321°
2026-04-25 22:52 41.47383 19.08459 38024 ft 422 kts 323°
2026-04-25 22:53 41.52831 19.02908 38023 ft 421 kts 323°
2026-04-25 22:53 41.57485 18.98157 38023 ft 421 kts 323°
2026-04-25 22:54 41.62129 18.93401 38023 ft 421 kts 322°
2026-04-25 22:54 41.66766 18.88639 38023 ft 422 kts 322°
2026-04-25 22:55 41.71402 18.83865 38023 ft 422 kts 322°
2026-04-25 22:55 41.76040 18.79081 38023 ft 422 kts 322°
2026-04-25 22:56 41.80522 18.74450 38023 ft 422 kts 322°
2026-04-25 22:56 41.83223 18.71656 38023 ft 421 kts 322°
2026-04-25 22:57 41.87857 18.66853 38023 ft 421 kts 322°
2026-04-25 22:57 41.92496 18.62031 38023 ft 421 kts 322°
2026-04-25 22:58 41.97122 18.57215 38023 ft 421 kts 322°
2026-04-25 22:58 42.01636 18.52170 38022 ft 421 kts 317°
2026-04-25 22:59 42.05736 18.46553 38019 ft 421 kts 313°
2026-04-25 22:59 42.09741 18.40753 38017 ft 421 kts 313°
2026-04-25 23:00 42.13074 18.35912 38018 ft 421 kts 313°
2026-04-25 23:00 42.17079 18.30087 38018 ft 421 kts 312°
2026-04-25 23:01 42.21057 18.24296 38021 ft 421 kts 312°
2026-04-25 23:01 42.25038 18.18488 38023 ft 419 kts 312°
2026-04-25 23:02 42.28985 18.12719 38023 ft 420 kts 312°
2026-04-25 23:02 42.32934 18.06936 38023 ft 420 kts 312°
2026-04-25 23:03 42.36882 18.01144 38023 ft 420 kts 311°
2026-04-25 23:03 42.40831 17.95336 38022 ft 420 kts 311°
2026-04-25 23:04 42.44122 17.90489 38022 ft 420 kts 311°
2026-04-25 23:04 42.48724 17.83698 38026 ft 420 kts 311°
2026-04-25 23:05 42.52658 17.77878 38028 ft 419 kts 311°
2026-04-25 23:05 42.56595 17.72041 38023 ft 419 kts 311°
2026-04-25 23:06 42.60516 17.66219 38020 ft 419 kts 311°
2026-04-25 23:06 42.64461 17.60348 38021 ft 419 kts 311°
2026-04-25 23:07 42.68391 17.54487 38023 ft 419 kts 311°
2026-04-25 23:07 42.72306 17.48638 38024 ft 420 kts 311°
2026-04-25 23:08 42.76255 17.42723 38024 ft 420 kts 311°
2026-04-25 23:08 42.80175 17.36844 38023 ft 419 kts 311°
2026-04-25 23:09 42.84096 17.30947 38019 ft 419 kts 310°
2026-04-25 23:09 42.87991 17.25081 38022 ft 418 kts 310°
2026-04-25 23:10 42.91891 17.19192 38024 ft 418 kts 310°
2026-04-25 23:10 42.95800 17.13279 38025 ft 418 kts 310°
2026-04-25 23:11 42.99709 17.07354 38020 ft 419 kts 310°
2026-04-25 23:11 43.03615 17.01423 38024 ft 419 kts 310°
2026-04-25 23:12 43.07520 16.95478 38015 ft 419 kts 310°
2026-04-25 23:12 43.11398 16.89562 38009 ft 418 kts 310°
2026-04-25 23:13 43.15280 16.83632 38009 ft 418 kts 310°
2026-04-25 23:13 43.19186 16.77649 38012 ft 418 kts 310°
2026-04-25 23:14 43.23079 16.71673 38009 ft 417 kts 310°
2026-04-25 23:14 43.26303 16.66716 38014 ft 417 kts 310°
2026-04-25 23:15 43.30156 16.60777 38014 ft 418 kts 310°
2026-04-25 23:15 43.34679 16.53792 38017 ft 418 kts 310°
2026-04-25 23:16 43.38526 16.47836 38014 ft 418 kts 310°
2026-04-25 23:16 43.42385 16.41847 38019 ft 418 kts 310°
2026-04-25 23:17 43.46233 16.35859 38023 ft 417 kts 310°
2026-04-25 23:17 43.50100 16.29895 38023 ft 417 kts 310°
2026-04-25 23:18 43.54100 16.24118 38024 ft 417 kts 311°
2026-04-25 23:18 43.58085 16.18378 38025 ft 416 kts 311°
2026-04-25 23:19 43.62094 16.12580 38022 ft 417 kts 311°
2026-04-25 23:19 43.66096 16.06775 38022 ft 417 kts 311°
2026-04-25 23:20 43.70074 16.00992 38021 ft 416 kts 311°
2026-04-25 23:20 43.74023 15.95236 38024 ft 416 kts 311°
2026-04-25 23:21 43.78021 15.89399 38024 ft 416 kts 311°
2026-04-25 23:21 43.81997 15.83581 38021 ft 415 kts 311°
2026-04-25 23:22 43.85964 15.77765 38021 ft 415 kts 311°
2026-04-25 23:23 43.91875 15.69074 38025 ft 414 kts 311°
2026-04-25 23:23 43.95793 15.63298 38024 ft 413 kts 311°
2026-04-25 23:24 43.99731 15.57481 38025 ft 413 kts 311°
2026-04-25 23:24 44.03682 15.51633 38020 ft 413 kts 311°
2026-04-25 23:25 44.07580 15.45851 38026 ft 413 kts 311°
2026-04-25 23:25 44.11519 15.39997 38027 ft 413 kts 311°
2026-04-25 23:26 44.15441 15.34154 38023 ft 413 kts 310°
2026-04-25 23:26 44.19362 15.28302 38033 ft 412 kts 310°
2026-04-25 23:27 44.23257 15.22475 38033 ft 412 kts 310°
2026-04-25 23:27 44.27157 15.16631 38031 ft 412 kts 310°
2026-04-25 23:28 44.31070 15.10756 38030 ft 412 kts 310°
2026-04-25 23:28 44.34948 15.04918 38032 ft 412 kts 310°
2026-04-25 23:29 44.38197 15.00018 38035 ft 412 kts 310°
2026-04-25 23:29 44.42730 14.93167 38037 ft 412 kts 310°
2026-04-25 23:30 44.46610 14.87292 38040 ft 412 kts 310°
2026-04-25 23:30 44.50474 14.81426 38042 ft 412 kts 310°
2026-04-25 23:31 44.54374 14.75497 38038 ft 412 kts 310°
2026-04-25 23:31 44.58240 14.69603 38040 ft 413 kts 310°
2026-04-25 23:32 44.62143 14.63640 38031 ft 412 kts 310°
2026-04-25 23:32 44.66016 14.57712 38028 ft 412 kts 311°
2026-04-25 23:33 44.69888 14.51772 38030 ft 412 kts 311°
2026-04-25 23:33 44.73756 14.45826 38029 ft 412 kts 311°
2026-04-25 23:34 44.77610 14.39888 38024 ft 411 kts 311°
2026-04-25 23:34 44.80827 14.34923 38029 ft 411 kts 310°
2026-04-25 23:35 44.84659 14.28995 38032 ft 412 kts 310°
2026-04-25 23:35 44.89143 14.22043 38027 ft 412 kts 310°
2026-04-25 23:36 44.92941 14.16141 38026 ft 412 kts 310°
2026-04-25 23:36 44.96792 14.10145 38026 ft 412 kts 310°
2026-04-25 23:37 45.00631 14.04155 38031 ft 412 kts 311°
2026-04-25 23:37 45.04480 13.98136 38022 ft 413 kts 311°
2026-04-25 23:38 45.08341 13.92084 38028 ft 413 kts 311°
2026-04-25 23:38 45.12178 13.86056 38036 ft 413 kts 311°
2026-04-25 23:39 45.16038 13.79981 38038 ft 413 kts 311°
2026-04-25 23:39 45.19877 13.73924 38036 ft 413 kts 311°
2026-04-25 23:40 45.23692 13.67891 38036 ft 413 kts 311°
2026-04-25 23:40 45.27525 13.61816 38034 ft 414 kts 311°
2026-04-25 23:41 45.31349 13.55741 38034 ft 414 kts 311°
2026-04-25 23:41 45.34449 13.50806 38036 ft 414 kts 311°
2026-04-25 23:42 45.36739 13.47154 38035 ft 413 kts 311°
2026-04-25 23:42 45.40570 13.41034 38035 ft 413 kts 311°
2026-04-25 23:43 45.44350 13.34978 38032 ft 414 kts 310°
2026-04-25 23:43 45.48247 13.28787 38034 ft 414 kts 312°
2026-04-25 23:44 45.52381 13.23043 38036 ft 415 kts 315°
2026-04-25 23:44 45.56559 13.17431 38036 ft 415 kts 315°
2026-04-25 23:45 45.60756 13.11779 38038 ft 415 kts 316°
2026-04-25 23:45 45.64967 13.06093 38037 ft 415 kts 316°
2026-04-25 23:46 45.69159 13.00415 38037 ft 415 kts 316°
2026-04-25 23:46 45.73351 12.94724 38033 ft 416 kts 316°
2026-04-25 23:47 45.77525 12.89044 38027 ft 416 kts 316°
2026-04-25 23:47 45.81707 12.83341 38024 ft 416 kts 316°
2026-04-25 23:48 45.85913 12.77590 38025 ft 416 kts 316°
2026-04-25 23:48 45.90077 12.71887 38029 ft 416 kts 316°
2026-04-25 23:49 45.94254 12.66153 38027 ft 416 kts 316°
2026-04-25 23:49 45.98442 12.60391 38028 ft 416 kts 316°
2026-04-25 23:50 46.02596 12.54663 38033 ft 416 kts 316°
2026-04-25 23:50 46.06777 12.48885 38039 ft 416 kts 316°
2026-04-25 23:51 46.10958 12.43094 38043 ft 417 kts 316°
2026-04-25 23:51 46.15169 12.37250 38066 ft 417 kts 316°
2026-04-25 23:52 46.19373 12.31400 38084 ft 418 kts 316°
2026-04-25 23:52 46.23146 12.26139 38104 ft 417 kts 316°
2026-04-25 23:53 46.27335 12.20285 38111 ft 417 kts 316°
2026-04-25 23:53 46.31498 12.14459 38131 ft 417 kts 316°
2026-04-25 23:54 46.35376 12.09017 38142 ft 417 kts 315°
2026-04-25 23:54 46.38696 12.04346 38153 ft 416 kts 316°
2026-04-25 23:55 46.42842 11.98503 38162 ft 417 kts 316°
2026-04-25 23:55 46.46997 11.92632 38170 ft 417 kts 316°
2026-04-25 23:56 46.51147 11.86754 38179 ft 416 kts 316°
2026-04-25 23:56 46.53580 11.83303 38183 ft 416 kts 316°
2026-04-25 23:57 46.56714 11.78850 38180 ft 417 kts 316°
2026-04-25 23:57 46.60821 11.72987 38187 ft 417 kts 315°
2026-04-25 23:58 46.64640 11.67192 38195 ft 417 kts 314°
2026-04-25 23:58 46.68604 11.61095 38202 ft 417 kts 314°
2026-04-25 23:59 46.72598 11.54938 38194 ft 416 kts 314°
2026-04-25 23:59 46.76550 11.48833 38209 ft 415 kts 314°
2026-04-26 00:00 46.80502 11.42713 38213 ft 415 kts 314°
2026-04-26 00:00 46.84445 11.36592 38203 ft 415 kts 314°
2026-04-26 00:01 46.88420 11.30408 38205 ft 415 kts 313°
2026-04-26 00:01 46.92488 11.24395 38211 ft 416 kts 317°
2026-04-26 00:02 46.96933 11.19035 38219 ft 415 kts 323°
2026-04-26 00:02 47.01722 11.14341 38213 ft 416 kts 327°
2026-04-26 00:03 47.06612 11.09838 38229 ft 416 kts 327°
2026-04-26 00:03 47.11304 11.04889 38245 ft 415 kts 321°
2026-04-26 00:04 47.15839 10.99495 38248 ft 415 kts 321°
2026-04-26 00:04 47.20308 10.94132 38257 ft 415 kts 321°
2026-04-26 00:05 47.24771 10.88770 38263 ft 415 kts 321°
2026-04-26 00:05 47.29264 10.83361 38255 ft 415 kts 321°
2026-04-26 00:06 47.33712 10.77992 38243 ft 415 kts 321°
2026-04-26 00:06 47.38208 10.72595 38234 ft 415 kts 322°
2026-04-26 00:07 47.42923 10.67620 38234 ft 415 kts 325°
2026-04-26 00:07 47.47697 10.62761 38226 ft 414 kts 325°
2026-04-26 00:08 47.52401 10.57959 38223 ft 414 kts 325°
2026-04-26 00:08 47.57170 10.53069 38211 ft 415 kts 325°
2026-04-26 00:09 47.61911 10.48167 38207 ft 415 kts 325°
2026-04-26 00:09 47.66600 10.43190 38205 ft 416 kts 320°
2026-04-26 00:10 47.70482 10.36884 38194 ft 416 kts 305°
2026-04-26 00:10 47.73090 10.29171 38199 ft 419 kts 290°
2026-04-26 00:11 47.74191 10.20641 38186 ft 423 kts 275°
2026-04-26 00:11 47.74089 10.11923 38083 ft 426 kts 270°
2026-04-26 00:11 47.73974 10.07520 37425 ft 427 kts 270°
2026-04-26 00:12 47.73866 10.03302 36762 ft 427 kts 270°
2026-04-26 00:12 47.73757 9.98894 36024 ft 427 kts 270°
2026-04-26 00:12 47.73649 9.94464 35289 ft 427 kts 271°
2026-04-26 00:12 47.73539 9.90063 34548 ft 427 kts 271°
2026-04-26 00:13 47.73430 9.85715 33843 ft 427 kts 271°
2026-04-26 00:13 47.73316 9.81290 33110 ft 427 kts 271°
2026-04-26 00:13 47.73199 9.76897 32348 ft 427 kts 271°
2026-04-26 00:13 47.73082 9.72505 31560 ft 428 kts 271°
2026-04-26 00:14 47.72963 9.68119 30916 ft 426 kts 271°
2026-04-26 00:14 47.72842 9.63757 30428 ft 420 kts 271°
2026-04-26 00:14 47.72721 9.59476 29916 ft 415 kts 271°
2026-04-26 00:14 47.72598 9.55172 29405 ft 411 kts 271°
2026-04-26 00:15 47.72477 9.50994 28908 ft 406 kts 271°
2026-04-26 00:15 47.72281 9.46815 28394 ft 405 kts 264°
2026-04-26 00:15 47.71537 9.42766 27882 ft 407 kts 252°
2026-04-26 00:15 47.70211 9.39053 27382 ft 410 kts 240°
2026-04-26 00:16 47.68468 9.35705 26887 ft 409 kts 235°
2026-04-26 00:16 47.66667 9.32480 26393 ft 406 kts 234°
2026-04-26 00:16 47.64878 9.29285 25905 ft 404 kts 234°
2026-04-26 00:16 47.63084 9.26059 25411 ft 401 kts 234°
2026-04-26 00:17 47.61314 9.22833 24922 ft 398 kts 237°
2026-04-26 00:17 47.59877 9.19432 24437 ft 390 kts 248°
2026-04-26 00:17 47.58904 9.15724 23946 ft 382 kts 258°
2026-04-26 00:17 47.58349 9.11933 23475 ft 377 kts 264°
2026-04-26 00:18 47.57952 9.08069 22991 ft 372 kts 271°
2026-04-26 00:18 47.58247 9.04350 22480 ft 362 kts 290°
2026-04-26 00:18 47.59338 9.01024 21990 ft 355 kts 308°
2026-04-26 00:18 47.60972 8.98345 21507 ft 352 kts 316°
2026-04-26 00:19 47.62694 8.95807 21016 ft 351 kts 316°
2026-04-26 00:19 47.64421 8.93258 20541 ft 350 kts 316°
2026-04-26 00:19 47.66127 8.90725 20069 ft 349 kts 316°
2026-04-26 00:19 47.67834 8.88178 19587 ft 348 kts 316°
2026-04-26 00:20 47.69527 8.85642 19117 ft 347 kts 316°
2026-04-26 00:20 47.71229 8.83086 18650 ft 345 kts 316°
2026-04-26 00:20 47.72895 8.80584 18164 ft 345 kts 316°
2026-04-26 00:20 47.74582 8.78048 17712 ft 343 kts 316°
2026-04-26 00:21 47.76094 8.75306 17207 ft 345 kts 300°
2026-04-26 00:21 47.76844 8.71924 16739 ft 348 kts 279°
2026-04-26 00:21 47.76708 8.68343 16244 ft 352 kts 258°
2026-04-26 00:21 47.75935 8.64890 15780 ft 352 kts 251°
2026-04-26 00:22 47.74677 8.61786 15273 ft 355 kts 229°
2026-04-26 00:22 47.72656 8.59672 14794 ft 358 kts 204°
2026-04-26 00:22 47.70233 8.58930 14339 ft 359 kts 180°
2026-04-26 00:22 47.67841 8.59678 13869 ft 357 kts 155°
2026-04-26 00:23 47.65819 8.61822 13396 ft 353 kts 131°
2026-04-26 00:23 47.64459 8.64771 12943 ft 349 kts 121°
2026-04-26 00:23 47.63085 8.67713 12503 ft 347 kts 124°
2026-04-26 00:23 47.61665 8.70618 12064 ft 346 kts 126°
2026-04-26 00:24 47.60214 8.73452 11576 ft 345 kts 127°
2026-04-26 00:24 47.58722 8.76250 11085 ft 343 kts 128°
2026-04-26 00:24 47.57244 8.78964 10690 ft 339 kts 128°
2026-04-26 00:24 47.55939 8.81799 10426 ft 327 kts 114°
2026-04-26 00:25 47.55275 8.84939 10306 ft 311 kts 98°
2026-04-26 00:25 47.55021 8.88053 10176 ft 297 kts 94°
2026-04-26 00:25 47.54837 8.91038 9900 ft 292 kts 94°
2026-04-26 00:25 47.54647 8.94037 9534 ft 290 kts 94°
2026-04-26 00:26 47.54447 8.96963 9201 ft 288 kts 94°
2026-04-26 00:26 47.54234 8.99943 8843 ft 286 kts 95°
2026-04-26 00:26 47.53848 9.02793 8457 ft 286 kts 114°
2026-04-26 00:26 47.52619 9.05019 8102 ft 284 kts 146°
2026-04-26 00:27 47.50798 9.06047 7766 ft 280 kts 175°
2026-04-26 00:27 47.48869 9.05873 7504 ft 273 kts 188°
2026-04-26 00:27 47.46999 9.05491 7261 ft 266 kts 188°
2026-04-26 00:27 47.45224 9.05150 7191 ft 253 kts 188°
2026-04-26 00:28 47.43586 9.04439 7161 ft 235 kts 217°
2026-04-26 00:28 47.42585 9.02656 7093 ft 227 kts 250°
2026-04-26 00:28 47.42370 9.00412 6821 ft 222 kts 277°
2026-04-26 00:28 47.42577 8.98157 6586 ft 222 kts 279°
2026-04-26 00:29 47.42789 8.95912 6388 ft 219 kts 279°
2026-04-26 00:29 47.42980 8.93707 6206 ft 213 kts 278°
2026-04-26 00:29 47.43156 8.91532 5996 ft 209 kts 277°
2026-04-26 00:29 47.43317 8.89423 5813 ft 206 kts 277°
2026-04-26 00:30 47.43471 8.87352 5673 ft 198 kts 277°
2026-04-26 00:30 47.43617 8.85388 5446 ft 192 kts 277°
2026-04-26 00:30 47.43756 8.83465 5233 ft 186 kts 277°
2026-04-26 00:30 47.43892 8.81607 5027 ft 179 kts 277°
2026-04-26 00:31 47.44025 8.79787 4768 ft 176 kts 278°
2026-04-26 00:31 47.44156 8.77998 4516 ft 173 kts 278°
2026-04-26 00:31 47.44283 8.76260 4218 ft 169 kts 278°
2026-04-26 00:31 47.44325 8.75676 4117 ft 167 kts 278°
2026-04-26 00:32 47.44520 8.72996 3707 ft 150 kts 278°
2026-04-26 00:32 47.44626 8.71516 3471 ft 139 kts 278°
2026-04-26 00:32 47.44829 8.68696 3093 ft 138 kts 278°
2026-04-26 00:33 47.44931 8.67294 2895 ft 137 kts 278°
2026-04-26 00:33 47.45032 8.65898 2697 ft 136 kts 278°
2026-04-26 00:33 47.45130 8.64524 2503 ft 135 kts 277°
2026-04-26 00:33 47.45225 8.63149 2323 ft 134 kts 277°
2026-04-26 00:34 47.45327 8.61790 2169 ft 133 kts 276°
2026-04-26 00:34 47.45425 8.60427 1977 ft 132 kts 277°
2026-04-26 00:34 47.45521 8.59097 1779 ft 131 kts 277°
2026-04-26 00:34 47.45615 8.57762 1585 ft 130 kts 277°
2026-04-26 00:35 47.45707 8.56425 1415 ft 126 kts 277°
2026-04-26 00:35 47.45768 8.55525 1399 ft 60 kts 276°
2026-04-26 00:35 47.45796 8.55116 1394 ft 22 kts 275°
2026-04-26 00:35 47.45784 8.54902 1392 ft 17 kts 240°
2026-04-26 00:36 47.45699 8.54879 1392 ft 11 kts 156°
2026-04-26 00:36 47.45627 8.54929 1392 ft 11 kts 155°
2026-04-26 00:36 47.45551 8.54981 1393 ft 12 kts 155°
2026-04-26 00:36 47.45479 8.55049 1394 ft 12 kts 133°
2026-04-26 00:37 47.45429 8.55156 1395 ft 12 kts 122°
2026-04-26 00:37 47.45384 8.55266 1396 ft 12 kts 120°
2026-04-26 00:37 47.45341 8.55379 1397 ft 12 kts 120°
2026-04-26 00:37 47.45301 8.55493 1398 ft 12 kts 117°
2026-04-26 00:38 47.45272 8.55612 1399 ft 12 kts 97°
2026-04-26 00:38 47.45264 8.55735 1401 ft 10 kts 96°
2026-04-26 00:38 47.45278 8.55795 1402 ft 5 kts 25°
2026-04-26 00:38 47.45315 8.55804 1402 ft 4 kts
2026-04-26 00:39 47.45338 8.55807 1402 ft 2 kts
2026-04-26 00:39 47.45342 8.55808 1402 ft 0 kts